Location: Champignolles
(47.0543°N, 4.5663°E)
Time: 19:47:10
(UTC+00:00)

Cosmos 1943 Rocket - Pass Details

Date: 30 November 2020
Orbit: 811 x 845 km, 71.0° (Epoch: 27 January)

Event Time Altitude Azimuth Distance (km) Brightness Sun altitude
Rises 18:11:31 0° 326° (NW) 3,359 5.7 -22.6°
Reaches altitude 10° 18:14:08 10° 317° (NW) 2,427 5.0 -23.0°
Maximum altitude 18:19:05 34° 254° (WSW) 1,325 3.8 -23.9°
Drops below altitude 10° 18:24:04 10° 191° (S) 2,432 4.8 -24.7°
Sets 18:26:41 0° 182° (S) 3,367 5.4 -25.1°
